KB0ALP Weather Reports


time (UTC)temp
C
wind
direction
speed
KPH
gust
KPH
rain 1hr
cm
rain 24hr
cm
rain mn
cm
humidity
%
barometer
mb
20260906150007 24 293 0.0 6.4 0.00 0.00 0.00 78 1019.6
20260906145503 23 89 0.0 6.4 0.00 0.00 0.00 81 1019.5
20260906145006 22 326 0.0 6.4 0.00 0.00 0.00 82 1019.5
20260906144514 22 283 0.0 6.4 0.00 0.00 0.00 83 1019.5
20260906144007 22 309 1.6 6.4 0.00 0.00 0.00 83 1019.5
20260906143508 22 307 0.0 1.6 0.00 0.00 0.00 84 1019.4
20260906143018 22 307 0.0 4.8 0.00 0.00 0.00 84 1019.3
20260906142509 21 287 1.6 4.8 0.00 0.00 0.00 84 1019.3
20260906142014 21 303 0.0 3.2 0.00 0.00 0.00 85 1019.4
20260906141528 21 302 0.0 1.6 0.00 0.00 0.00 85 1019.4
20260906141011 21 341 0.0 4.8 0.00 0.00 0.00 85 1019.3
20260906140511 21 306 0.0 4.8 0.00 0.00 0.00 85 1019.3
20260906140004 21 249 1.6 4.8 0.00 0.00 0.00 85 1019.3
20260906135503 21 168 0.0 4.8 0.00 0.00 0.00 86 1019.3
20260906135005 21 293 1.6 4.8 0.00 0.00 0.00 86 1019.3
20260906134510 21 106 0.0 4.8 0.00 0.00 0.00 86 1019.3
20260906134005 21 255 1.6 4.8 0.00 0.00 0.00 86 1019.3
20260906133504 21 326 0.0 4.8 0.00 0.00 0.00 86 1019.2
20260906133012 21 176 0.0 4.8 0.00 0.00 0.00 86 1019.0
20260906132506 21 251 0.0 4.8 0.00 0.00 0.00 86 1019.1
20260906132007 21 259 0.0 4.8 0.00 0.00 0.00 87 1019.0
20260906131520 21 191 0.0 4.8 0.00 0.00 0.00 87 1019.0
20260906131010 20 184 1.6 4.8 0.00 0.00 0.00 87 1019.0
20260906130513 20 253 1.6 4.8 0.00 0.00 0.00 87 1019.1
20260906130027 20 273 0.0 3.2 0.00 0.00 0.00 88 1019.1
20260906125514 20 17 0.0 9.7 0.00 0.00 0.00 88 1019.3
20260906125012 20 251 1.6 9.7 0.00 0.00 0.00 88 1019.3
20260906124505 20 253 0.0 4.8 0.00 0.00 0.00 89 1019.3
20260906124004 20 254 1.6 4.8 0.00 0.00 0.00 89 1019.2
20260906123504 20 262 0.0 3.2 0.00 0.00 0.00 89 1019.2
20260906123010 20 247 0.0 1.6 0.00 0.00 0.00 89 1019.2
20260906122509 20 153 0.0 1.6 0.00 0.00 0.00 89 1019.3
20260906122008 20 153 0.0 1.6 0.00 0.00 0.00 90 1019.2
20260906121518 20 146 0.0 4.8 0.00 0.00 0.00 90 1019.2
20260906121009 20 248 0.0 4.8 0.00 0.00 0.00 90 1019.1
20260906120513 20 250 0.0 4.8 0.00 0.00 0.00 90 1019.0
20260906120025 20 238 0.0 4.8 0.00 0.00 0.00 90 1019.1
20260906115513 20 187 0.0 1.6 0.00 0.00 0.00 90 1019.1
20260906115012 20 205 0.0 3.2 0.00 0.00 0.00 90 1018.9
20260906114530 20 208 0.0 3.2 0.00 0.00 0.00 90 1018.7
20260906114014 20 216 0.0 3.2 0.00 0.00 0.00 90 1018.6
20260906113514 20 221 0.0 3.2 0.00 0.00 0.00 90 1018.3
20260906113030 20 213 0.0 4.8 0.00 0.00 0.00 90 1018.3
20260906112504 20 220 0.0 4.8 0.00 0.00 0.00 90 1018.3
20260906112004 20 228 0.0 3.2 0.00 0.00 0.00 90 1018.2
20260906111516 20 240 0.0 3.2 0.00 0.00 0.00 90 1018.1
20260906111007 20 208 0.0 3.2 0.00 0.00 0.00 90 1018.1
20260906110508 20 181 0.0 4.8 0.00 0.00 0.00 90 1018.0
20260906110024 20 215 0.0 4.8 0.00 0.00 0.00 90 1017.9
20260906105511 20 217 0.0 1.6 0.00 0.00 0.00 90 1017.9
20260906105009 20 202 0.0 1.6 0.00 0.00 0.00 90 1017.8
20260906104527 20 216 0.0 3.2 0.00 0.00 0.00 90 1017.6
20260906104012 20 217 0.0 3.2 0.00 0.00 0.00 90 1017.6
20260906103502 20 184 0.0 3.2 0.00 0.00 0.00 90 1017.4
20260906103013 20 188 0.0 4.8 0.00 0.00 0.00 90 1017.4
20260906102507 20 178 1.6 4.8 0.00 0.00 0.00 90 1017.3
20260906102004 20 222 0.0 3.2 0.00 0.00 0.00 90 1017.3
20260906101511 20 224 0.0 4.8 0.00 0.00 0.00 90 1017.3
20260906101009 20 211 0.0 4.8 0.00 0.00 0.00 90 1017.3
20260906100505 20 213 0.0 4.8 0.00 0.00 0.00 90 1017.2
20260906100024 20 146 0.0 3.2 0.00 0.00 0.00 90 1017.1
20260906095503 20 226 0.0 3.2 0.00 0.00 0.00 90 1017.1
20260906095004 20 251 0.0 3.2 0.00 0.00 0.00 90 1017.1
20260906094512 20 255 0.0 3.2 0.00 0.00 0.00 89 1017.2
20260906094004 20 181 0.0 3.2 0.00 0.00 0.00 89 1017.1
20260906093505 20 235 0.0 1.6 0.00 0.00 0.00 89 1017.2
20260906093012 20 231 0.0 0.0 0.00 0.00 0.00 89 1017.2
20260906092504 20 231 0.0 1.6 0.00 0.00 0.00 89 1017.2
20260906092005 20 247 0.0 1.6 0.00 0.00 0.00 89 1017.2
20260906091509 20 248 0.0 1.6 0.00 0.00 0.00 89 1017.2
20260906091004 20 248 0.0 1.6 0.00 0.00 0.00 88 1017.1
20260906090505 21 248 0.0 3.2 0.00 0.00 0.00 88 1017.0
20260906090011 21 226 0.0 3.2 0.00 0.00 0.00 88 1017.0
20260906085510 21 226 0.0 0.0 0.00 0.00 0.00 88 1017.1
20260906085006 21 196 0.0 0.0 0.00 0.00 0.00 87 1017.3
20260906084512 21 176 0.0 1.6 0.00 0.00 0.00 87 1017.3
20260906084005 21 176 0.0 3.2 0.00 0.00 0.00 87 1017.3
20260906083506 21 217 0.0 3.2 0.00 0.00 0.00 87 1017.2
20260906083014 21 231 0.0 3.2 0.00 0.00 0.00 87 1017.2
20260906082507 21 240 0.0 3.2 0.00 0.00 0.00 87 1017.3
20260906082007 21 209 0.0 1.6 0.00 0.00 0.00 87 1017.3
20260906081514 21 222 0.0 3.2 0.00 0.00 0.00 86 1017.3
20260906081007 21 222 0.0 3.2 0.00 0.00 0.00 86 1017.2
20260906080504 21 233 0.0 1.6 0.00 0.00 0.00 86 1017.2
20260906080012 21 207 0.0 4.8 0.00 0.00 0.00 85 1017.1
20260906075505 21 229 1.6 4.8 0.00 0.00 0.00 85 1017.1
20260906075006 21 218 1.6 4.8 0.00 0.00 0.00 85 1017.1
20260906074516 21 184 0.0 4.8 0.00 0.00 0.00 85 1017.1
20260906074008 21 261 0.0 3.2 0.00 0.00 0.00 85 1017.1
20260906073508 21 188 0.0 6.4 0.00 0.00 0.00 85 1017.2
20260906073016 22 206 1.6 6.4 0.00 0.00 0.00 85 1017.2
20260906072507 22 276 3.2 6.4 0.00 0.00 0.00 85 1017.5
20260906072008 22 205 0.0 4.8 0.00 0.00 0.00 85 1017.4
20260906071519 22 227 0.0 4.8 0.00 0.00 0.00 85 1017.4
20260906071007 22 197 0.0 4.8 0.00 0.00 0.00 85 1017.5
20260906070507 22 242 0.0 4.8 0.00 0.00 0.00 85 1017.5
20260906070017 22 210 0.0 6.4 0.00 0.00 0.00 84 1017.6
20260906065508 22 200 3.2 6.4 0.00 0.00 0.00 84 1017.7
20260906065005 22 210 1.6 4.8 0.00 0.00 0.00 84 1017.7
20260906064512 22 193 1.6 8.0 0.00 0.00 0.00 84 1017.5
20260906064004 22 214 1.6 8.0 0.00 0.00 0.00 84 1017.5
20260906063510 22 181 3.2 12.9 0.00 0.00 0.00 84 1017.5
20260906063018 22 248 1.6 12.9 0.00 0.00 0.00 84 1017.5
20260906062509 22 241 1.6 6.4 0.00 0.00 0.00 83 1017.4
20260906062009 22 227 0.0 6.4 0.00 0.00 0.00 83 1017.5
20260906061524 22 276 1.6 6.4 0.00 0.00 0.00 83 1017.4
20260906061007 22 158 1.6 4.8 0.00 0.00 0.00 83 1017.4
20260906060507 22 185 0.0 6.4 0.00 0.00 0.00 83 1017.4
20260906060021 22 199 1.6 6.4 0.00 0.00 0.00 83 1017.4
20260906055513 22 190 0.0 14.5 0.00 0.00 0.00 83 1017.4
20260906055009 23 189 1.6 14.5 0.00 0.00 0.00 82 1017.4
20260906054533 23 136 1.6 8.0 0.00 0.00 0.00 82 1017.4
20260906054009 23 221 3.2 6.4 0.00 0.00 0.00 82 1017.4
20260906053511 23 220 3.2 6.4 0.00 0.00 0.00 82 1017.4
20260906053014 23 200 0.0 6.4 0.00 0.00 0.00 81 1017.4
20260906052506 23 201 0.0 8.0 0.00 0.00 0.00 81 1017.4
20260906052012 23 226 1.6 8.0 0.00 0.00 0.00 81 1017.3
20260906051518 23 205 0.0 4.8 0.00 0.00 0.00 81 1017.3
20260906051011 23 206 1.6 6.4 0.00 0.00 0.00 81 1017.1
20260906050514 23 169 1.6 6.4 0.00 0.00 0.00 80 1017.2
20260906050027 23 207 1.6 6.4 0.00 0.00 0.00 80 1017.2
20260906045509 23 191 1.6 6.4 0.00 0.00 0.00 80 1017.4
20260906045008 23 203 1.6 6.4 0.00 0.00 0.00 81 1017.3
20260906044523 23 191 0.0 8.0 0.00 0.00 0.00 81 1017.3
20260906044011 23 160 4.8 8.0 0.00 0.00 0.00 81 1017.1
20260906043509 23 203 3.2 6.4 0.00 0.00 0.00 81 1017.0
20260906043026 23 289 1.6 8.0 0.00 0.00 0.00 81 1016.9
20260906042509 23 245 4.8 8.0 0.00 0.00 0.00 81 1016.8
20260906042014 23 263 0.0 6.4 0.00 0.00 0.00 82 1016.7
20260906041516 23 243 3.2 6.4 0.00 0.00 0.00 81 1016.6
20260906041009 23 250 0.0 4.8 0.00 0.00 0.00 81 1016.5
20260906040509 23 181 0.0 4.8 0.00 0.00 0.00 81 1016.4
20260906040023 23 216 0.0 4.8 0.00 0.00 0.00 81 1016.3
20260906035508 23 225 0.0 4.8 0.00 0.00 0.00 81 1016.3
20260906035011 23 184 0.0 1.6 0.00 0.00 0.00 81 1016.3
20260906034528 23 178 0.0 3.2 0.00 0.00 0.00 81 1016.1
20260906034011 23 207 0.0 3.2 0.00 0.00 0.00 81 1016.1
20260906033512 23 216 0.0 1.6 0.00 0.00 0.00 81 1016.1
20260906033028 24 253 0.0 3.2 0.00 0.00 0.00 81 1016.2
20260906032513 24 186 0.0 3.2 0.00 0.00 0.00 81 1016.2
20260906032015 24 179 0.0 0.0 0.00 0.00 0.00 81 1016.1
20260906031524 24 179 0.0 3.2 0.00 0.00 0.00 81 1016.1
20260906031015 24 179 0.0 4.8 0.00 0.00 0.00 80 1016.0
20260906030512 24 196 0.0 4.8 0.00 0.00 0.00 80 1015.9
20260906030019 24 142 0.0 3.2 0.00 0.00 0.00 80 1015.8
20260906025508 24 195 0.0 3.2 0.00 0.00 0.00 80 1015.8
20260906025010 24 245 0.0 4.8 0.00 0.00 0.00 80 1015.8
20260906024520 24 236 1.6 4.8 0.00 0.00 0.00 81 1015.7
20260906024012 24 240 0.0 4.8 0.00 0.00 0.00 80 1015.7
20260906023514 24 192 0.0 4.8 0.00 0.00 0.00 81 1015.7
20260906023027 24 213 0.0 3.2 0.00 0.00 0.00 81 1015.7
20260906022512 24 245 0.0 3.2 0.00 0.00 0.00 80 1015.6
20260906022012 24 207 0.0 1.6 0.00 0.00 0.00 80 1015.6
20260906021537 24 207 0.0 3.2 0.00 0.00 0.00 80 1015.6
20260906021014 24 232 0.0 4.8 0.00 0.00 0.00 80 1015.5
20260906020517 24 210 1.6 4.8 0.00 0.00 0.00 80 1015.4
20260906020030 24 186 0.0 3.2 0.00 0.00 0.00 80 1015.3
20260906015511 24 186 0.0 3.2 0.00 0.00 0.00 80 1015.2
20260906015014 24 233 0.0 3.2 0.00 0.00 0.00 80 1015.3
20260906014529 24 212 0.0 3.2 0.00 0.00 0.00 80 1015.4
20260906014009 24 233 0.0 4.8 0.00 0.00 0.00 80 1015.2
20260906013512 24 218 0.0 4.8 0.00 0.00 0.00 79 1015.0
20260906013038 24 203 0.0 6.4 0.00 0.00 0.00 79 1014.9
20260906012503 25 208 1.6 6.4 0.00 0.00 0.00 79 1015.0
20260906012003 25 213 0.0 4.8 0.00 0.00 0.00 79 1015.0
20260906011505 25 200 0.0 4.8 0.00 0.00 0.00 79 1015.0
20260906011003 25 257 0.0 4.8 0.00 0.00 0.00 78 1015.1
20260906010505 25 214 1.6 6.4 0.00 0.00 0.00 78 1015.2
20260906010008 25 236 1.6 6.4 0.00 0.00 0.00 78 1015.2
20260906005504 25 248 3.2 6.4 0.00 0.00 0.00 78 1015.2
20260906005005 25 243 1.6 6.4 0.00 0.00 0.00 77 1015.2
20260906004516 25 183 1.6 8.0 0.00 0.00 0.00 78 1015.2
20260906004002 25 174 0.0 8.0 0.00 0.00 0.00 77 1015.2
20260906003502 26 191 1.6 9.7 0.00 0.00 0.00 77 1015.2
20260906003008 26 262 3.2 9.7 0.00 0.00 0.00 77 1015.1
20260906002502 26 221 3.2 6.4 0.00 0.00 0.00 76 1015.1
20260906002003 26 188 1.6 9.7 0.00 0.00 0.00 76 1015.1
20260906001506 26 227 3.2 9.7 0.00 0.00 0.00 75 1015.1
20260906001003 26 204 1.6 6.4 0.00 0.00 0.00 75 1015.0
20260906000504 27 245 3.2 6.4 0.00 0.00 0.00 75 1015.0
20260906000006 27 170 3.2 11.3 0.00 0.00 0.00 76 1014.9
20260905235503 27 181 3.2 11.3 0.00 0.00 0.00 75 1014.7
20260905235004 27 218 3.2 9.7 0.00 0.00 0.00 75 1014.7
20260905234512 27 169 3.2 9.7 0.00 0.00 0.00 74 1014.6
20260905234007 27 196 3.2 9.7 0.00 0.00 0.00 75 1014.7
20260905233507 27 172 3.2 9.7 0.00 0.00 0.00 74 1014.7
20260905233019 28 229 4.8 9.7 0.00 0.00 0.00 74 1014.6
20260905232510 28 181 4.8 11.3 0.00 0.00 0.00 73 1014.7
20260905232003 28 210 1.6 11.3 0.00 0.00 0.00 74 1014.7
20260905231504 28 178 3.2 9.7 0.00 0.00 0.00 74 1014.7
20260905231003 28 174 4.8 9.7 0.00 0.00 0.00 74 1014.7
20260905230504 29 268 4.8 8.0 0.00 0.00 0.00 73 1014.6
20260905230007 29 100 0.0 8.0 0.00 0.00 0.00 74 1014.6
20260905225504 29 214 3.2 8.0 0.00 0.00 0.00 73 1014.7
20260905225003 29 145 1.6 6.4 0.00 0.00 0.00 73 1014.7
20260905224514 30 152 3.2 8.0 0.00 0.00 0.00 72 1014.7
20260905224003 30 255 3.2 8.0 0.00 0.00 0.00 72 1014.6
20260905223507 30 212 0.0 8.0 0.00 0.00 0.00 71 1014.6
20260905223014 30 200 3.2 8.0 0.00 0.00 0.00 71 1014.6
20260905222509 30 181 1.6 6.4 0.00 0.00 0.00 71 1014.5
20260905222007 30 148 3.2 9.7 0.00 0.00 0.00 70 1014.4
20260905221519 30 271 4.8 9.7 0.00 0.00 0.00 70 1014.3
20260905221009 30 224 3.2 8.0 0.00 0.00 0.00 70 1014.3
20260905220502 30 252 4.8 8.0 0.00 0.00 0.00 70 1014.4
20260905220003 30 215 1.6 6.4 0.00 0.00 0.00 71 1014.4
20260905215504 30 229 1.6 9.7 0.00 0.00 0.00 71 1014.5
20260905215003 30 212 3.2 9.7 0.00 0.00 0.00 70 1014.4
20260905214506 30 159 1.6 6.4 0.00 0.00 0.00 70 1014.4
20260905214004 31 78 1.6 9.7 0.00 0.00 0.00 70 1014.2
20260905213503 31 183 3.2 9.7 0.00 0.00 0.00 70 1014.2
20260905213009 31 196 1.6 8.0 0.00 0.00 0.00 70 1014.1
20260905212506 31 209 1.6 8.0 0.00 0.00 0.00 70 1014.1
20260905212004 31 231 3.2 11.3 0.00 0.00 0.00 68 1014.0
20260905211515 31 243 4.8 11.3 0.00 0.00 0.00 68 1014.0
20260905211007 31 167 3.2 9.7 0.00 0.00 0.00 69 1014.0
20260905210509 32 190 3.2 9.7 0.00 0.00 0.00 67 1014.1
20260905210021 32 155 3.2 6.4 0.00 0.00 0.00 67 1014.1
20260905205511 32 208 1.6 8.0 0.00 0.00 0.00 67 1014.0
20260905205012 32 252 1.6 9.7 0.00 0.00 0.00 67 1014.1
20260905204502 32 273 4.8 9.7 0.00 0.00 0.00 65 1014.1
20260905204002 33 250 3.2 9.7 0.00 0.00 0.00 64 1014.2
20260905203504 33 194 3.2 8.0 0.00 0.00 0.00 64 1014.2
20260905203008 33 155 1.6 8.0 0.00 0.00 0.00 64 1014.2
20260905202503 33 225 3.2 6.4 0.00 0.00 0.00 63 1014.4
20260905202005 33 44 0.0 4.8 0.00 0.00 0.00 63 1014.4
20260905201517 33 318 0.0 4.8 0.00 0.00 0.00 64 1014.4
20260905201007 33 134 1.6 4.8 0.00 0.00 0.00 63 1014.3
20260905200504 33 136 3.2 4.8 0.00 0.00 0.00 62 1014.2
20260905200023 33 176 1.6 4.8 0.00 0.00 0.00 61 1014.2
20260905195507 33 176 3.2 4.8 0.00 0.00 0.00 63 1014.3
20260905195008 33 229 1.6 4.8 0.00 0.00 0.00 63 1014.3
20260905194520 33 217 1.6 4.8 0.00 0.00 0.00 63 1014.3
20260905194012 32 156 1.6 4.8 0.00 0.00 0.00 64 1014.4
20260905193517 33 167 0.0 4.8 0.00 0.00 0.00 63 1014.4
20260905193005 33 158 1.6 4.8 0.00 0.00 0.00 61 1014.4
20260905192503 33 86 0.0 6.4 0.00 0.00 0.00 64 1014.4
20260905192003 33 162 1.6 6.4 0.00 0.00 0.00 62 1014.5
20260905191508 33 203 1.6 6.4 0.00 0.00 0.00 65 1014.4
20260905191003 32 276 3.2 6.4 0.00 0.00 0.00 64 1014.5
20260905190504 32 248 0.0 3.2 0.00 0.00 0.00 66 1014.6
20260905190016 32 205 0.0 4.8 0.00 0.00 0.00 64 1014.6
20260905185505 33 100 1.6 6.4 0.00 0.00 0.00 63 1014.6
20260905185009 33 165 0.0 6.4 0.00 0.00 0.00 63 1014.6
20260905184522 33 178 0.0 4.8 0.00 0.00 0.00 65 1014.6
20260905184011 32 265 1.6 4.8 0.00 0.00 0.00 63 1014.6
20260905183510 33 207 1.6 4.8 0.00 0.00 0.00 62 1014.6
20260905183024 33 213 1.6 4.8 0.00 0.00 0.00 63 1014.5
20260905182511 33 240 1.6 4.8 0.00 0.00 0.00 64 1014.6
20260905182013 32 269 3.2 4.8 0.00 0.00 0.00 64 1014.6
20260905181529 32 227 0.0 4.8 0.00 0.00 0.00 64 1014.8
20260905181004 32 172 0.0 4.8 0.00 0.00 0.00 64 1014.7
20260905180503 32 185 1.6 4.8 0.00 0.00 0.00 63 1014.7
20260905180009 33 169 1.6 4.8 0.00 0.00 0.00 63 1014.7
20260905175503 33 174 1.6 4.8 0.00 0.00 0.00 63 1014.9
20260905175008 33 146 1.6 4.8 0.00 0.00 0.00 62 1014.9
20260905174517 33 278 1.6 4.8 0.00 0.00 0.00 62 1014.8
20260905174009 32 157 0.0 4.8 0.00 0.00 0.00 62 1014.9
20260905173509 32 162 1.6 4.8 0.00 0.00 0.00 62 1015.0
20260905173018 33 210 3.2 4.8 0.00 0.00 0.00 62 1014.9
20260905172511 33 146 3.2 6.4 0.00 0.00 0.00 62 1014.9
20260905172012 33 262 3.2 6.4 0.00 0.00 0.00 61 1014.9
20260905171530 33 245 1.6 6.4 0.00 0.00 0.00 61 1015.0
20260905171011 33 264 1.6 3.2 0.00 0.00 0.00 61 1015.1
20260905170512 33 178 0.0 4.8 0.00 0.00 0.00 62 1015.0
20260905170029 33 156 0.0 4.8 0.00 0.00 0.00 63 1015.1
20260905165514 32 259 1.6 8.0 0.00 0.00 0.00 62 1015.2
20260905165003 32 141 3.2 8.0 0.00 0.00 0.00 63 1015.2
20260905164509 32 231 1.6 8.0 0.00 0.00 0.00 64 1015.2
20260905164003 32 226 3.2 8.0 0.00 0.00 0.00 64 1015.3
20260905163503 32 249 1.6 6.4 0.00 0.00 0.00 65 1015.2
20260905163014 32 297 1.6 6.4 0.00 0.00 0.00 64 1015.2
20260905162512 32 288 0.0 3.2 0.00 0.00 0.00 67 1015.2
20260905162007 31 260 1.6 8.0 0.00 0.00 0.00 66 1015.2
20260905161521 31 265 1.6 8.0 0.00 0.00 0.00 66 1015.2
20260905161008 32 276 1.6 6.4 0.00 0.00 0.00 64 1015.3
20260905160512 32 254 3.2 8.0 0.00 0.00 0.00 66 1015.2
20260905160032 31 205 3.2 8.0 0.00 0.00 0.00 65 1015.3
20260905155514 31 272 3.2 8.0 0.00 0.00 0.00 66 1015.3
20260905155015 32 143 3.2 6.4 0.00 0.00 0.00 65 1015.3
20260905154532 32 243 3.2 4.8 0.00 0.00 0.00 66 1015.4
20260905154016 32 273 1.6 4.8 0.00 0.00 0.00 66 1015.4
20260905153504 31 245 1.6 6.4 0.00 0.00 0.00 67 1015.3
20260905153015 31 299 1.6 6.4 0.00 0.00 0.00 67 1015.3
20260905152504 31 230 3.2 6.4 0.00 0.00 0.00 68 1015.3
20260905152007 31 282 1.6 4.8 0.00 0.00 0.00 67 1015.3
20260905151515 31 276 1.6 4.8 0.00 0.00 0.00 65 1015.2
20260905151009 31 290 1.6 6.4 0.00 0.00 0.00 67 1015.2
20260905150508 31 274 3.2 6.4 0.00 0.00 0.00 66 1015.0